Weather History for Goldsboro, NC

Change the Weather History Date:

Saturday, February 23, 2013

  Actual Average (KGSB) Record (KGSB)
Temperature  
Mean Temperature 41 °F -  
Max Temperature 45 °F 56 °F 76 °F (2012)
Min Temperature 38 °F 37 °F 24 °F (1999)
Degree Days  
Heating Degree Days 24    
Moisture  
Dew Point 42 °F    
Average Humidity 100    
Maximum Humidity 100    
Minimum Humidity 100    
Precipitation  
Precipitation 0.39 in - - ()
Sea Level Pressure  
Sea Level Pressure 29.94 in    
Wind  
Wind Speed 5 mph (NNW)    
Max Wind Speed 9 mph    
Max Gust Speed -    
Visibility 6 miles    
Events Rain    
Averages and records for this station are not official NWS values.
T = Trace of Precipitation, MM = Missing Value Source: NWS Daily Summary

Daily Weather History Graph

Daily Weather History Graph

Search for Another Location

Airport:

Trip Planner

Search our weather history database for the weather conditions in past years. The results will help you decide how hot, cold, wet, or windy it might be!

Date:

Astronomy

Feb. 23, 2013 Rise Set
Actual Time 6:48 AM EST 6:01 PM EST
Civil Twilight 6:23 AM EST 6:27 PM EST
Nautical Twilight 5:53 AM EST 6:57 PM EST
Astronomical Twilight 5:24 AM EST 7:26 PM EST
Moon 4:12 PM EST (2/23) 5:07 AM EST (2/23)
Length of Visible Light 12h 04m
Length of Day
11h 13m
Waxing Gibbous, 95% of the Moon is Illuminated
Feb 23
Waxing Gibbous
Feb 25
Full
Mar 4
Last Quarter
Mar 11
New
Mar 19
First Quarter

Hourly Weather History & Observations

Time (EST) Temp. Windchill Dew Point Humidity Pressure Visibility Wind Dir Wind Speed Gust Speed Precip Events Conditions
12:15 AM 39.2 °F 35.0 °F 39.2 °F 100% 30.13 in 3.0 mi North 5.8 mph - 0.02 in Rain Light Rain
12:35 AM 39.2 °F 35.0 °F 39.2 °F 100% 30.11 in 3.0 mi North 5.8 mph - 0.03 in   Drizzle
12:55 AM 39.2 °F 35.0 °F 39.2 °F 100% 30.10 in 3.0 mi NNE 5.8 mph - 0.03 in   Light Drizzle
1:15 AM 39.4 °F 35.2 °F 39.4 °F 100% 30.08 in 3.0 mi NNE 5.8 mph - N/A   Overcast
1:35 AM 39.4 °F 35.2 °F 39.4 °F 100% 30.07 in 3.0 mi NNE 5.8 mph - N/A   Overcast
2:15 AM 39.6 °F 36.3 °F 39.6 °F 100% 30.06 in 2.5 mi North 4.6 mph - N/A   Overcast
2:35 AM 39.6 °F 35.4 °F 39.6 °F 100% 30.05 in 2.5 mi North 5.8 mph - 0.01 in Rain Rain
2:55 AM 39.6 °F 36.3 °F 39.6 °F 100% 30.04 in 3.0 mi North 4.6 mph - 0.01 in   Drizzle
3:15 AM 39.4 °F 35.2 °F 39.4 °F 100% 30.03 in 4.0 mi North 5.8 mph - N/A   Overcast
3:35 AM 39.4 °F 35.2 °F 39.4 °F 100% 30.02 in 3.0 mi North 5.8 mph - N/A   Overcast
3:55 AM 39.2 °F 33.0 °F 39.2 °F 100% 30.01 in 3.0 mi North 9.2 mph - 0.01 in Rain Rain
4:15 AM 39.2 °F 34.2 °F 39.2 °F 100% 30.01 in 3.0 mi North 6.9 mph - 0.02 in Rain Rain
4:35 AM 39.2 °F 34.2 °F 39.2 °F 100% 30.01 in 4.0 mi North 6.9 mph - 0.03 in Rain Rain
4:55 AM 39.2 °F 35.9 °F 39.2 °F 100% 29.99 in 5.0 mi North 4.6 mph - 0.03 in   Drizzle
5:15 AM 38.8 °F 33.8 °F 38.8 °F 100% 29.99 in 10.0 mi North 6.9 mph - N/A   Overcast
5:35 AM 38.8 °F 35.4 °F 38.8 °F 100% 30.00 in 10.0 mi North 4.6 mph - N/A Rain Light Rain
5:55 AM 39.2 °F 35.0 °F 39.2 °F 100% 30.00 in 10.0 mi North 5.8 mph - N/A   Overcast
6:15 AM 39.2 °F 35.0 °F 39.2 °F 100% 30.01 in 10.0 mi NNW 5.8 mph - N/A   Overcast
6:35 AM 39.2 °F 33.6 °F 39.2 °F 100% 30.01 in 10.0 mi North 8.1 mph - N/A   Overcast
7:15 AM 38.7 °F 33.6 °F 38.7 °F 100% 30.02 in 5.0 mi NNW 6.9 mph - 0.01 in Rain Rain
7:35 AM 38.5 °F 34.1 °F 38.5 °F 100% 30.02 in 7.0 mi NNW 5.8 mph - 0.01 in   Drizzle
7:55 AM 38.5 °F 33.4 °F 38.5 °F 100% 30.02 in 7.0 mi North 6.9 mph - 0.03 in Rain Rain
8:15 AM 38.7 °F 33.6 °F 38.7 °F 100% 30.01 in 10.0 mi North 6.9 mph - 0.02 in Rain Light Rain
8:35 AM 38.8 °F 35.4 °F 38.8 °F 100% 30.01 in 4.0 mi North 4.6 mph - 0.05 in Rain Rain
8:55 AM 39.2 °F 35.9 °F 39.2 °F 100% 30.00 in 3.0 mi NE 4.6 mph - 0.09 in Rain Rain
9:15 AM 39.4 °F - 39.4 °F 100% 29.98 in 7.0 mi Calm Calm - 0.02 in Rain Light Rain
9:35 AM 40.1 °F - 40.1 °F 100% 29.97 in 5.0 mi Calm Calm - 0.03 in Rain Rain
9:55 AM 40.1 °F 38.0 °F 40.1 °F 100% 29.98 in 7.0 mi NNW 3.5 mph - 0.05 in Rain Rain
10:15 AM 40.3 °F - 40.3 °F 100% 29.98 in 3.0 mi Calm Calm - 0.05 in Rain Rain
10:55 AM 41.2 °F 38.2 °F 41.2 °F 100% 29.93 in 7.0 mi ENE 4.6 mph - 0.12 in Rain Light Rain
11:15 AM 41.5 °F - 41.5 °F 100% 29.95 in 10.0 mi Calm Calm - N/A   Light Drizzle
11:35 AM 41.9 °F - 41.9 °F 100% 29.94 in 10.0 mi Calm Calm - N/A Rain Rain
11:55 AM 42.4 °F 39.6 °F 42.4 °F 100% 29.94 in 7.0 mi NW 4.6 mph - 0.01 in   Heavy Drizzle
12:15 PM 42.4 °F 38.8 °F 42.4 °F 100% 29.91 in 4.0 mi North 5.8 mph - N/A   Light Drizzle
12:35 PM 43.0 °F 40.3 °F 43.0 °F 100% 29.92 in 7.0 mi NNW 4.6 mph - N/A   Overcast
12:55 PM 43.2 °F 38.4 °F 43.2 °F 100% 29.92 in 10.0 mi NNW 8.1 mph - N/A   Overcast
1:15 PM 43.3 °F 40.7 °F 43.3 °F 100% 29.90 in 2.0 mi NNW 4.6 mph - 0.01 in   Drizzle
1:35 PM 43.3 °F 39.9 °F 43.3 °F 100% 29.90 in 3.0 mi NNW 5.8 mph - 0.01 in   Overcast
1:55 PM 43.5 °F 40.9 °F 43.5 °F 100% 29.90 in 1.8 mi NW 4.6 mph - 0.01 in   Overcast
2:15 PM 43.7 °F 41.1 °F 43.7 °F 100% 29.89 in 2.0 mi NNW 4.6 mph - N/A   Overcast
2:35 PM 43.7 °F 42.1 °F 43.7 °F 100% 29.90 in 3.0 mi West 3.5 mph - N/A   Overcast
2:55 PM 43.9 °F - 43.9 °F 100% 29.88 in 1.8 mi Calm Calm - N/A   Overcast
3:15 PM 44.1 °F 41.5 °F 44.1 °F 100% 29.90 in 1.5 mi WNW 4.6 mph - N/A Rain Light Rain
3:35 PM 44.2 °F 41.0 °F 44.2 °F 100% 29.87 in 1.5 mi NNW 5.8 mph - N/A   Light Drizzle
3:55 PM 44.6 °F 42.2 °F 44.6 °F 100% 29.88 in 3.0 mi NNW 4.6 mph - N/A   Overcast
4:15 PM 44.6 °F 42.2 °F 44.6 °F 100% 29.85 in 10.0 mi North 4.6 mph - N/A   Overcast
4:35 PM 44.6 °F 42.2 °F 44.6 °F 100% 29.85 in 10.0 mi North 4.6 mph - N/A   Overcast
4:55 PM 44.6 °F - 44.6 °F 100% 29.86 in 10.0 mi Calm Calm - N/A   Overcast
5:15 PM 44.6 °F - 44.6 °F 100% 29.86 in 10.0 mi Calm Calm - N/A   Overcast
5:35 PM 44.8 °F - 44.8 °F 100% 29.86 in 10.0 mi Calm Calm - N/A   Overcast
5:55 PM 44.8 °F - 44.8 °F 100% 29.85 in 10.0 mi Calm Calm - N/A   Overcast
6:15 PM 44.8 °F 41.6 °F 44.8 °F 100% 29.86 in 10.0 mi NNW 5.8 mph - N/A   Overcast
6:35 PM 44.8 °F 42.4 °F 44.8 °F 100% 29.86 in 10.0 mi North 4.6 mph - N/A   Overcast
6:55 PM 44.6 °F 42.2 °F 44.6 °F 100% 29.85 in 10.0 mi North 4.6 mph - N/A   Overcast
7:15 PM 44.6 °F - 44.6 °F 100% 29.85 in 10.0 mi Calm Calm - N/A   Overcast
7:35 PM 44.6 °F - 44.6 °F 100% 29.85 in 10.0 mi Calm Calm - N/A   Overcast
8:15 PM 44.8 °F - 44.8 °F 100% 29.86 in 10.0 mi Calm Calm - N/A   Overcast
8:55 PM 44.8 °F 42.4 °F 44.8 °F 100% 29.88 in 10.0 mi WNW 4.6 mph - N/A   Overcast
9:15 PM 44.6 °F - 44.6 °F 100% 29.89 in 10.0 mi Calm Calm - N/A   Overcast
9:35 PM 44.8 °F 43.3 °F 44.8 °F 100% 29.89 in 10.0 mi SW 3.5 mph - N/A   Overcast
9:55 PM 44.8 °F 43.3 °F 44.8 °F 100% 29.89 in 10.0 mi WSW 3.5 mph - N/A   Overcast
10:35 PM 44.8 °F - 44.8 °F 100% 29.86 in 7.0 mi Calm Calm - N/A   Overcast
10:55 PM 44.8 °F - 44.8 °F 100% 29.85 in 7.0 mi Calm Calm - N/A   Overcast
11:15 PM 44.6 °F - 44.6 °F 100% 29.85 in 7.0 mi Calm Calm - N/A   Overcast
11:35 PM 44.6 °F 41.4 °F 44.6 °F 100% 29.84 in 7.0 mi SSE 5.8 mph - N/A   Overcast
11:55 PM 44.6 °F - 44.6 °F 100% 29.82 in 7.0 mi Calm Calm - N/A   Overcast